Wind_Speed
18 16 15 15 15 16 17 18 18 20 21 22 23 24 25 27 28 29 29 30 31 32 32 32 33 33 33 32 32 31 31 30 29 28 28 28 28 29 29 29 29 30 32
14 13 14 14 15 16 17 18 19 20 22 23 25 26 28 28 29 30 32 32 33 34 34 34 34 35 35 34 34 33 32 32 31 30 29 28 28 28 28 29 30 31 32
10 11 13 14 15 16 17 18 20 21 23 24 26 28 29 31 32 33 34 35 36 36 36 36 36 36 36 36 36 35 34 33 33 32 31 30 29 29 29 30 31 32 33
10 11 12 14 14 16 18 20 21 23 24 26 27 29 30 32 33 35 36 37 37 37 37 37 37 37 37 37 37 36 35 35 34 34 34 33 31 30 30 30 31 32 33
9 11 13 14 16 17 19 21 22 24 26 28 29 31 32 34 35 36 37 37 38 38 37 37 37 37 37 37 37 37 37 36 36 36 35 35 34 32 31 30 31 33 33
8 11 13 15 17 18 20 22 24 26 28 29 31 32 33 34 35 36 36 37 37 38 38 37 37 37 38 38 38 38 38 37 37 37 36 36 35 34 34 32 32 33 34
9 12 14 16 17 19 21 23 26 27 29 30 32 33 33 33 34 34 35 35 36 36 37 37 37 37 37 37 38 38 38 38 37 37 37 37 37 37 36 35 34 34 35
12 14 15 17 18 21 23 25 27 28 30 31 32 33 33 33 34 34 34 34 35 35 36 36 36 36 37 37 37 37 37 37 37 37 37 37 37 38 38 37 37 36 36
13 14 16 17 19 21 24 26 28 30 31 32 32 33 33 34 34 34 35 35 35 35 36 36 37 37 37 37 37 37 37 37 37 37 37 37 38 38 39 39 39 38 38
14 15 16 18 21 23 26 29 31 32 33 33 33 34 34 34 35 35 35 35 36 36 37 37 37 38 38 38 38 38 38 38 38 39 39 39 39 39 40 40 40 40 39
15 16 19 21 24 27 29 32 33 33 33 34 34 35 35 36 36 36 36 37 37 37 37 38 38 39 39 39 39 39 40 40 40 40 40 40 41 41 41 42 42 42 42
17 19 21 24 26 29 32 33 34 34 35 35 35 36 37 37 37 37 38 37 37 38 38 39 39 40 40 40 40 40 41 41 42 42 42 41 42 42 42 43 43 44 45
20 22 24 26 29 31 33 34 35 35 35 36 36 37 38 38 38 38 38 38 38 39 39 39 40 40 40 40 40 40 41 41 42 43 43 43 44 44 44 45 45 46 46
22 24 26 28 31 33 35 35 35 36 36 37 37 38 39 39 39 39 39 39 39 39 39 40 40 40 40 39 39 39 39 40 41 43 44 45 45 45 46 47 47 47 48
24 26 28 30 33 34 36 35 36 36 37 38 39 39 40 40 40 40 40 40 40 40 40 41 41 40 39 39 39 39 39 40 41 42 44 45 46 47 48 48 49 49 49
26 28 30 32 34 35 35 35 36 37 38 39 40 40 41 41 41 41 41 41 41 41 41 41 40 38 38 38 38 38 38 39 40 42 43 45 46 47 49 49 50 51 51
27 29 31 33 35 35 35 36 37 38 39 40 41 41 41 42 42 42 42 42 42 42 41 40 39 38 37 38 38 37 37 38 39 40 42 45 46 47 49 50 52 53 54
29 30 32 34 35 35 35 36 38 39 40 41 42 42 42 43 43 43 42 42 42 42 41 39 38 38 38 38 37 37 36 36 37 39 40 42 44 47 49 51 52 54 56
30 32 33 34 35 35 36 37 39 41 41 42 43 44 44 43 43 43 43 42 42 42 41 39 39 38 38 38 37 37 36 35 35 36 38 39 42 44 47 49 51 53 56
31 32 33 34 35 36 37 39 41 42 43 43 44 45 44 44 44 44 43 42 42 41 41 39 39 38 38 37 37 36 35 33 33 33 34 36 38 41 44 46 48 51 54
32 33 34 35 35 36 38 40 42 43 44 45 45 45 45 44 44 44 43 42 42 41 40 39 39 38 38 36 36 34 32 31 30 30 31 33 35 37 40 43 46 48 52
32 34 35 36 36 37 39 41 42 44 45 46 46 46 45 45 44 43 42 42 41 40 39 39 38 37 37 35 33 31 29 27 27 27 28 28 30 33 37 40 43 46 48
34 35 36 37 37 38 40 42 43 45 46 46 46 46 46 45 44 43 42 41 40 39 39 38 37 36 35 33 31 28 26 25 24 23 23 24 26 28 32 35 39 42 45
35 36 36 37 39 40 42 44 45 46 46 47 47 46 46 45 44 43 41 40 39 39 39 37 35 34 32 30 28 26 24 22 20 19 19 20 21 24 28 31 35 38 41
36 36 37 38 40 42 44 45 46 46 47 47 47 46 45 44 43 42 40 39 39 38 37 35 33 31 29 27 26 24 22 20 18 16 14 14 16 19 23 27 30 34 37
36 37 39 40 42 43 44 46 47 47 47 48 47 46 45 43 42 40 39 39 38 37 35 33 32 30 28 25 24 22 20 18 15 12 11 10 11 14 18 22 26 30 34
Wind_Direction
285 283 287 296 300 302 301 301 302 301 301 302 303 303 301 300 298 297 297 296 294 293 292 290 288 286 284 283 281 280 278 278 275 272 270 268 265 259 254 250 245 241 239
284 287 291 298 301 303 303 303 304 304 305 305 305 304 303 302 301 300 298 296 294 293 292 289 287 285 284 282 281 279 277 276 274 272 268 266 265 259 254 251 247 240 239
290 292 294 299 303 305 305 304 305 306 307 307 307 306 305 303 301 299 298 296 294 293 291 289 287 285 283 281 281 279 276 275 273 271 267 264 262 259 254 251 248 240 237
293 293 298 303 305 306 306 306 308 308 308 307 307 306 304 302 300 298 297 296 294 293 291 289 287 285 282 281 279 278 276 273 271 268 265 263 261 258 253 250 246 242 237
302 303 305 308 310 309 309 309 310 310 309 308 307 306 304 302 300 299 297 296 294 293 291 289 287 285 283 281 279 277 275 272 269 267 264 262 259 255 251 247 244 240 237
307 307 309 311 311 312 313 313 313 312 312 311 309 308 306 304 302 300 298 296 294 292 291 289 287 285 283 281 278 276 274 272 269 266 263 260 257 254 250 246 244 240 236
311 310 311 314 315 317 317 316 314 314 313 313 311 310 308 306 304 301 299 297 295 293 291 290 288 285 283 280 278 276 274 271 268 264 261 257 254 252 249 245 242 239 235
309 311 314 316 317 318 318 318 317 317 316 315 314 312 310 308 306 304 302 300 298 295 293 291 289 287 284 281 278 275 272 269 266 263 259 255 252 250 248 244 241 238 235
308 311 315 317 319 321 322 322 321 320 319 319 318 316 314 313 311 309 307 304 302 299 297 294 291 288 286 282 279 275 272 269 265 262 258 254 251 248 246 243 241 238 235
312 315 319 322 324 325 326 326 325 324 323 322 321 320 319 318 316 314 311 309 305 302 299 297 293 290 287 284 280 276 272 268 265 261 258 254 251 247 245 241 239 238 235
319 322 325 326 328 328 328 328 328 327 326 325 324 323 322 320 318 316 314 312 309 305 302 299 296 293 289 285 281 277 273 269 265 261 257 254 250 247 244 240 237 236 235
325 327 328 329 330 330 330 330 329 329 328 327 326 325 324 322 320 318 316 314 311 308 305 302 299 295 291 286 282 278 273 268 264 261 257 253 250 246 243 240 237 235 233
329 329 330 331 331 331 332 331 331 331 330 329 328 326 325 323 321 320 318 315 313 310 307 305 302 297 293 289 284 279 274 269 264 260 256 253 250 246 243 240 237 235 232
330 330 331 332 333 334 334 333 332 332 331 330 329 328 327 325 323 321 319 317 315 313 310 308 305 301 296 292 287 282 277 271 266 261 257 253 249 246 243 240 237 235 233
332 333 334 335 335 335 334 334 334 334 333 332 331 330 328 326 324 322 320 318 316 314 313 310 307 304 299 294 290 284 278 273 268 262 257 253 249 245 243 239 236 234 232
333 334 335 335 335 335 335 335 335 335 334 333 332 330 328 326 325 323 321 319 317 316 314 312 309 305 301 297 293 287 280 274 269 263 258 253 250 245 242 238 236 233 232
333 334 335 335 335 335 335 335 335 335 334 333 333 331 329 327 326 324 321 320 318 317 316 314 311 307 303 300 296 291 284 278 272 265 259 254 250 246 242 239 235 233 231
332 333 333 333 334 334 335 335 335 335 334 334 333 331 330 328 327 325 323 321 320 319 317 314 311 308 305 302 299 294 288 283 275 267 260 255 250 247 243 239 235 233 231
331 332 332 332 333 334 335 335 335 335 335 334 334 332 331 329 327 326 324 322 321 320 318 316 313 310 307 305 301 297 291 285 277 269 262 257 252 248 244 239 235 232 230
330 331 331 331 333 334 334 334 334 335 335 334 334 332 331 330 329 327 325 323 323 321 320 318 316 313 311 307 304 299 294 287 279 272 265 259 253 247 242 237 234 231 229
329 329 330 330 331 332 333 333 334 334 334 333 333 332 330 330 330 329 327 325 324 323 322 320 319 317 314 311 307 303 297 289 282 275 268 261 253 246 241 236 232 230 228
327 328 329 330 330 331 332 332 333 333 333 333 332 331 330 330 331 330 328 327 326 326 325 323 322 320 318 315 312 307 301 294 286 278 270 262 254 246 239 234 231 228 226
326 327 328 330 330 331 331 331 332 332 333 333 333 332 332 332 331 331 330 329 328 328 328 326 325 323 321 319 317 312 306 299 292 282 273 263 254 245 237 233 230 227 225
324 326 327 328 329 329 330 331 331 331 332 333 333 333 332 332 332 332 331 330 330 330 330 329 329 328 326 323 321 320 315 308 300 289 277 266 254 243 234 229 227 225 222
323 325 326 328 329 330 330 330 331 331 332 332 333 333 333 333 332 332 332 332 332 333 333 332 333 333 331 328 326 325 323 318 310 297 284 272 253 240 231 225 222 221 219
322 323 325 326 327 328 329 330 330 331 331 332 332 332 333 333 333 333 332 333 335 336 336 336 336 336 335 333 331 330 329 326 321 309 291 276 253 235 227 222 219 218 217
Height
5851 5852 5852 5851 5851 5850 5849 5848 5847 5845 5844 5842 5841 5839 5838 5836 5835 5833 5832 5830 5828 5826 5825 5824 5822 5821 5820 5819 5819 5818 5818 5818 5817 5818 5818 5819 5819 5819 5821 5823 5825 5828 5831
5848 5848 5848 5848 5848 5847 5846 5845 5843 5841 5840 5838 5836 5834 5832 5830 5828 5826 5824 5822 5820 5818 5816 5815 5814 5812 5811 5810 5810 5810 5810 5809 5809 5809 5810 5811 5812 5812 5813 5815 5817 5820 5823
5846 5846 5846 5845 5845 5844 5843 5842 5840 5838 5835 5833 5830 5828 5825 5823 5821 5818 5816 5814 5811 5809 5808 5806 5804 5803 5802 5801 5800 5800 5800 5800 5800 5800 5801 5803 5804 5805 5806 5808 5809 5812 5815
5844 5844 5843 5843 5842 5840 5839 5838 5836 5833 5830 5828 5825 5822 5819 5816 5814 5811 5808 5805 5802 5800 5798 5796 5795 5793 5792 5791 5790 5790 5790 5790 5791 5791 5792 5793 5795 5797 5799 5800 5802 5804 5807
5841 5841 5841 5839 5838 5837 5835 5833 5831 5828 5825 5822 5819 5816 5813 5809 5806 5802 5799 5796 5793 5790 5788 5786 5785 5783 5781 5780 5780 5779 5779 5780 5781 5781 5782 5784 5785 5787 5789 5792 5794 5796 5799
5840 5839 5838 5837 5835 5834 5831 5829 5826 5823 5820 5816 5812 5809 5805 5801 5797 5794 5790 5787 5784 5781 5778 5776 5774 5772 5771 5770 5769 5768 5768 5769 5769 5770 5772 5773 5776 5778 5780 5783 5786 5788 5791
5839 5838 5837 5834 5832 5830 5827 5825 5821 5817 5814 5810 5805 5801 5797 5793 5789 5785 5782 5778 5775 5771 5768 5765 5763 5761 5760 5759 5758 5757 5757 5757 5758 5759 5761 5763 5765 5768 5770 5774 5777 5780 5783
5838 5836 5834 5831 5829 5826 5823 5820 5816 5812 5807 5803 5798 5794 5789 5785 5781 5776 5772 5769 5765 5761 5758 5755 5753 5751 5749 5747 5746 5746 5745 5746 5747 5748 5750 5752 5754 5757 5760 5763 5767 5771 5774
5836 5834 5831 5828 5825 5822 5818 5814 5810 5805 5801 5796 5791 5786 5781 5776 5771 5767 5762 5758 5755 5751 5748 5745 5742 5740 5737 5736 5735 5734 5734 5734 5735 5736 5738 5740 5743 5746 5749 5753 5756 5761 5765
5833 5830 5828 5825 5821 5817 5813 5808 5803 5798 5793 5788 5783 5777 5772 5767 5762 5757 5753 5748 5744 5740 5737 5734 5731 5728 5726 5724 5723 5722 5722 5722 5723 5724 5726 5728 5731 5734 5738 5741 5746 5750 5755
5829 5827 5823 5820 5816 5812 5807 5802 5797 5791 5786 5780 5775 5769 5764 5758 5753 5748 5743 5739 5734 5730 5726 5722 5719 5716 5714 5712 5710 5709 5708 5709 5710 5711 5713 5715 5718 5722 5725 5730 5734 5739 5744
5825 5822 5818 5815 5810 5806 5801 5795 5790 5784 5778 5773 5767 5761 5755 5750 5744 5739 5734 5729 5724 5719 5715 5711 5707 5704 5701 5698 5697 5695 5695 5695 5696 5697 5699 5702 5705 5709 5712 5717 5722 5727 5732
5821 5817 5813 5809 5805 5800 5794 5788 5783 5777 5771 5765 5760 5754 5748 5741 5736 5730 5724 5719 5714 5709 5704 5699 5695 5691 5688 5685 5682 5681 5680 5680 5681 5682 5684 5687 5691 5695 5699 5704 5709 5714 5719
5816 5812 5808 5804 5799 5793 5788 5782 5776 5770 5765 5759 5752 5746 5740 5733 5727 5721 5715 5709 5704 5698 5693 5688 5683 5678 5674 5671 5668 5666 5666 5665 5666 5667 5669 5672 5675 5680 5684 5690 5695 5701 5706
5811 5807 5803 5798 5792 5787 5781 5776 5770 5764 5758 5752 5745 5739 5732 5725 5719 5713 5706 5700 5694 5688 5682 5676 5671 5665 5661 5657 5654 5652 5651 5650 5651 5651 5653 5656 5659 5664 5669 5675 5680 5687 5693
5806 5802 5797 5792 5787 5782 5776 5770 5764 5758 5752 5745 5738 5731 5724 5717 5711 5704 5697 5691 5684 5678 5671 5665 5659 5653 5649 5645 5641 5638 5636 5635 5635 5636 5637 5640 5643 5648 5653 5659 5665 5672 5679
5801 5797 5792 5787 5782 5776 5770 5765 5758 5752 5745 5738 5731 5724 5717 5709 5702 5695 5688 5681 5674 5667 5660 5654 5648 5642 5637 5632 5628 5624 5622 5621 5620 5620 5621 5623 5627 5631 5636 5642 5649 5656 5663
5796 5792 5787 5782 5776 5771 5765 5759 5752 5746 5739 5731 5724 5716 5709 5701 5693 5686 5679 5671 5664 5657 5650 5643 5637 5631 5626 5620 5616 5611 5608 5606 5604 5604 5605 5607 5610 5614 5619 5625 5632 5639 5647
5791 5787 5782 5777 5771 5765 5759 5753 5746 5739 5732 5724 5717 5709 5701 5693 5685 5677 5670 5662 5654 5647 5640 5633 5626 5620 5614 5608 5603 5599 5595 5592 5590 5589 5590 5591 5594 5598 5602 5608 5616 5623 5631
5786 5781 5776 5771 5765 5759 5753 5747 5740 5733 5725 5717 5709 5701 5693 5685 5677 5669 5661 5653 5645 5637 5630 5623 5616 5609 5603 5597 5591 5586 5582 5579 5577 5576 5576 5577 5579 5582 5586 5592 5599 5607 5615
5781 5776 5771 5765 5759 5753 5747 5740 5733 5726 5718 5710 5702 5693 5685 5677 5669 5661 5652 5644 5636 5628 5621 5614 5606 5599 5592 5585 5579 5574 5570 5567 5564 5563 5562 5563 5564 5567 5571 5577 5584 5592 5599
5775 5771 5765 5760 5753 5747 5741 5734 5727 5719 5711 5703 5695 5686 5678 5669 5661 5653 5644 5636 5628 5620 5612 5604 5596 5589 5582 5575 5569 5563 5559 5555 5553 5551 5550 5550 5552 5554 5559 5564 5571 5577 5585
5770 5764 5759 5753 5747 5741 5735 5728 5720 5712 5704 5696 5687 5679 5670 5661 5653 5645 5637 5628 5620 5612 5604 5596 5588 5580 5573 5566 5560 5555 5550 5546 5543 5541 5540 5540 5541 5544 5548 5553 5559 5565 5573
5763 5758 5752 5747 5741 5735 5728 5721 5713 5705 5697 5689 5680 5672 5663 5654 5646 5638 5629 5621 5613 5605 5597 5589 5581 5573 5566 5560 5554 5548 5543 5539 5535 5533 5532 5532 5532 5535 5538 5543 5549 5556 5563
5756 5751 5746 5740 5734 5728 5721 5714 5706 5698 5690 5682 5673 5665 5656 5648 5639 5631 5623 5615 5607 5599 5591 5583 5575 5568 5561 5555 5549 5543 5538 5534 5530 5528 5527 5526 5526 5528 5531 5536 5542 5548 5555
5749 5744 5739 5733 5727 5721 5714 5706 5699 5691 5683 5675 5666 5658 5650 5642 5634 5625 5617 5609 5602 5594 5586 5578 5571 5564 5557 5551 5545 5540 5535 5531 5527 5525 5523 5523 5523 5524 5527 5531 5536 5542 5549